Regional Weather Roundup
Issued by NWS

Home | Current Version | Previous Version | Text Only | Print | Product List | Glossary Off
Versions: 1 2 3 4 5 6 7 8 9 10 11 12 13 14 15 16 17 18 19 20 21 22 23 24 25 26 27 28 29 30 31 32 33 34 35 36 37 38 39 40 41 42 43 44 45 46 47 48 49 50

000
ASUS43 KLOT 300258
RWRIL

ILLINOIS REGIONAL WEATHER ROUNDUP
NATIONAL WEATHER SERVICE CHICAGO/ROMEOVILLE IL
1000 PM CDT WED OCT 29 2014

NOTE: "FAIR" INDICATES FEW OR NO CLOUDS BELOW 12,000 FEET WITH NO
SIGNIFICANT WEATHER AND/OR OBSTRUCTIONS TO VISIBILITY.

* THESE STATIONS ARE NOT UNDER NWS QUALITY CONTROL. THEY ALSO MAY NOT
  REPORT WEATHER SUCH AS PRECIPITATION OR FOG.

ILZ001-002-007-009-015-016-024-300400-
NORTHWEST ILLINOIS

CITY           SKY/WX    TMP DP  RH WIND       PRES   REMARKS
MOLINE         CLEAR     36  31  82 CALM      30.14S
$$

ILZ003-004-008-010-011-017-018-300400-
NORTH CENTRAL ILLINOIS

CITY           SKY/WX    TMP DP  RH WIND       PRES   REMARKS
ROCKFORD       NOT AVBL
$$

ILZ005-006-012>014-019>023-300400-
NORTHEAST ILLINOIS

CITY           SKY/WX    TMP DP  RH WIND       PRES   REMARKS
CHICAGO-OHARE  PTCLDY    41  32  70 CALM      30.14R
CHICAGO-MIDWAY PTCLDY    46  33  60 SW5       30.14S
AURORA         CLEAR     35  29  78 NW3       30.15S
WAUKEGAN       NOT AVBL
DUPAGE AIRPORT CLEAR     39  31  72 CALM      30.14S
WHEELING       CLEAR     39  31  72 CALM      30.16R
NORTHERLY ISL    N/A     47  31  54 W3          N/A
$$

LMZ740>746-300400-
SOUTHERN LAKE MICHIGAN

STATION/POSITION SKY/WX   TEMP    WIND        PRES    VSBY  WAVE
                          AIR SEA DIR/SP/G                  HT/PER
                          (F)     (DEG/KT/KT) (MB)    (MI)  (FT/S)
SOUTHERN BUOY              48 53  300/ 10/ 14 1020.2R         2/ 5
WAUKEGAN HARBOR            44     350/  3/  4   N/A
HARRISON CRIB              48     310/  7/  9   N/A
BURNHAM HARBOR             48     260/  2/  9   N/A
CALUMET HARBOR             46     240/  3/  5 1019.4R
MICHIGAN CITY              48     340/  8/ 10   N/A
$$

ILZ025>027-034>036-040-047-049-050-058-095>099-300400-
WEST-CENTRAL ILLINOIS

CITY           SKY/WX    TMP DP  RH WIND       PRES   REMARKS
$$

ILZ028>032-037-038-041>044-048-051>054-059>061-300400-
CENTRAL ILLINOIS

CITY           SKY/WX    TMP DP  RH WIND       PRES   REMARKS
PEORIA         NOT AVBL
SPRINGFIELD    CLEAR     39  35  86 CALM      30.17S
TAYLORVILLE    NOT AVBL
$$

ILZ033-039-045-046-055>057-062-063-300400-
EAST-CENTRAL ILLINOIS

CITY           SKY/WX    TMP DP  RH WIND       PRES   REMARKS
CHAMPAIGN      CLEAR     37  32  82 CALM      30.16S
MATTOON        CLEAR     41  34  76 NE5       30.16R
$$

ILZ079-100>102-300400-
SOUTHWEST ILLINOIS

CITY           SKY/WX    TMP DP  RH WIND       PRES   REMARKS
CAHOKIA*       CLEAR     41  38  89 CALM      30.17R
$$

ILZ064>066-069>071-074>076-080>082-084>086-088>090-092>094-300400-
SOUTH-CENTRAL ILLINOIS

CITY           SKY/WX    TMP DP  RH WIND       PRES   REMARKS
CARBONDALE     CLEAR     40  35  83 CALM      30.17R
$$

ILZ067-068-072-073-078-083-087-091-300400-
SOUTHEAST ILLINOIS

CITY           SKY/WX    TMP DP  RH WIND       PRES   REMARKS
$$

ABBREVIATIONS USED IN REMARKS
   TC - TEMPERATURE IN CELSIUS
  WCI - WIND CHILL INDEX
   HX - HEAT INDEX
  VSB - VISIBILITY
$$




USA.gov is the U.S. government's official web portal to all federal, state and local government web resources and services.